Location: Shepherdstown, WV
(39.4326°N, 77.8042°W)
Time: 05:45:25
(UTC-04:00)

Vanguard 3 - Pass Details

Date: 06 August 2021
Orbit: 510 x 3260 km, 33.3° (Epoch: 21 September)

Event Time Altitude Azimuth Distance (km) Brightness Sun altitude
Rises 22:53:31 0° 281° (W) 6,439 12.5 -24.9°
Reaches altitude 10° 22:57:41 10° 275° (W) 5,690 12.0 -25.4°
Maximum altitude 23:14:39 46° 211° (SSW) 3,988 10.3 -27.3°
Enters shadow 23:22:10 35° 170° (S) 4,378 10.3 -28.1°
Drops below altitude 10° 23:31:51 10° 146° (SE) 5,718 - -29.0°
Sets 23:36:06 0° 140° (SE) 6,468 - -29.4°
